Wind_Speed
15 15 16 16 16 14 14 13 12 11 10 11 12 11 12 12 12 11 9 11 11 16 18 18 20 18 14 11 8 7 6 8 9 14 9 10 16 15 16 10 8 18 18 23 32
16 15 15 16 15 15 15 13 12 12 11 10 11 12 11 12 11 12 12 11 10 16 16 16 19 18 17 14 10 7 6 6 8 12 15 10 7 15 13 15 15 15 20 25 31
19 19 17 16 15 15 15 14 12 12 12 11 10 11 11 10 11 12 13 14 12 14 16 20 22 19 18 17 13 9 7 3 6 10 12 4 10 17 0 21 12 5 9 24 30
22 22 22 20 18 16 14 14 13 12 12 12 11 10 9 8 6 10 13 15 15 14 18 21 22 23 20 16 12 12 7 2 4 12 15 14 9 11 6 11 11 6 4 12 30
21 22 21 20 20 19 16 14 13 12 12 11 11 9 8 8 11 6 11 16 16 14 17 18 20 20 21 14 13 15 2 6 12 15 19 9 8 7 11 14 10 10 14 16 27
22 20 21 22 19 17 17 16 14 13 12 11 11 9 8 7 9 12 8 13 16 16 15 17 14 14 18 18 17 7 6 10 9 15 11 10 6 8 6 15 12 14 16 21 25
19 20 20 19 20 19 16 16 15 14 13 11 11 9 6 7 11 12 14 11 14 15 12 13 17 20 24 19 12 7 7 3 4 3 11 12 4 11 4 15 13 14 16 21 22
18 17 18 18 17 18 19 16 15 15 14 12 9 8 6 9 9 10 11 13 14 18 17 16 18 22 22 14 10 7 8 2 4 2 7 7 2 3 10 9 17 12 17 23 23
17 16 16 16 15 16 18 18 16 15 15 13 10 8 5 5 3 5 10 16 17 20 21 24 24 21 16 14 12 7 8 7 1 6 3 7 4 8 12 14 15 8 8 21 25
16 15 15 14 12 12 16 16 16 14 15 13 11 8 8 6 2 5 11 17 16 22 25 29 28 23 21 16 9 7 11 9 9 8 5 10 13 13 10 6 9 14 10 16 24
15 14 13 11 8 10 13 12 13 14 15 14 12 13 15 12 6 2 9 18 16 16 27 31 29 28 22 19 16 13 15 14 6 3 6 8 14 20 17 13 13 17 16 15 20
14 12 10 8 6 9 10 12 13 14 12 15 14 17 15 12 11 7 10 14 16 12 23 29 29 22 21 21 16 13 17 13 3 2 11 11 15 19 23 17 18 13 19 14 23
12 9 7 4 6 10 13 13 14 10 7 12 17 16 13 10 10 8 5 12 12 10 23 22 17 20 19 15 16 15 20 9 6 13 11 7 3 22 28 23 21 15 22 19 25
10 8 5 2 6 10 12 13 8 7 4 9 19 16 10 7 7 9 11 12 13 14 14 13 19 13 17 18 14 15 17 9 7 4 5 5 4 16 30 25 24 20 24 24 28
7 7 5 3 5 4 5 6 4 10 4 8 13 12 13 7 12 12 14 11 10 12 15 9 7 12 11 17 12 11 8 9 11 11 8 6 2 7 17 20 25 25 24 27 26
6 5 5 4 3 3 2 4 9 2 4 6 9 10 10 12 11 10 10 12 14 13 9 10 7 1 6 12 12 10 11 12 15 11 3 7 4 5 17 11 14 21 28 24 21
6 6 4 3 4 7 10 8 5 6 4 5 7 5 11 17 13 6 5 11 7 11 12 9 8 8 9 11 9 11 12 2 2 3 5 9 2 4 4 12 16 12 9 19 23
9 10 10 15 12 7 10 12 13 7 11 12 7 8 13 15 10 8 9 8 3 2 8 9 6 9 5 10 14 8 14 7 5 4 5 8 8 6 10 9 10 13 15 18 20
10 14 19 16 13 7 13 22 11 10 12 9 14 10 8 13 13 13 9 10 7 5 5 7 6 8 9 7 13 11 7 7 6 5 3 5 2 2 8 12 9 11 11 15 21
17 18 14 14 8 9 6 17 8 10 7 5 8 7 12 12 14 8 6 5 6 6 5 4 3 7 9 10 9 11 8 4 4 4 3 2 11 20 17 11 12 8 9 17 22
12 12 9 8 8 6 13 11 5 6 5 3 5 7 10 11 10 9 8 8 6 3 4 2 2 1 4 12 11 6 7 4 6 4 5 3 6 15 15 14 9 9 12 5 20
5 4 4 5 2 4 7 5 0 1 2 1 5 7 8 9 10 9 9 7 2 0 2 3 3 7 8 12 7 7 16 13 6 5 4 3 5 8 12 13 9 9 7 8 14
5 2 1 3 5 2 6 3 3 5 7 7 5 3 7 9 7 12 7 4 4 2 1 3 4 4 10 17 10 8 12 12 8 8 14 4 4 7 5 7 10 9 7 6 5
7 7 10 1 3 0 1 4 5 4 4 7 7 5 5 6 6 12 11 5 0 5 3 4 3 0 5 2 8 12 13 10 6 6 6 6 15 12 5 10 9 13 12 8 10
7 8 10 9 6 3 5 2 3 3 3 3 3 5 8 7 10 10 6 6 2 3 7 6 3 1 2 5 9 11 10 7 3 3 4 10 14 13 11 8 7 11 16 10 6
8 7 9 8 9 6 3 6 4 3 2 1 3 3 6 9 12 10 12 8 6 6 6 7 2 4 8 10 15 19 17 13 9 5 10 15 18 16 9 9 11 11 12 10 2
10 9 8 8 9 8 11 10 9 6 6 5 4 4 3 5 7 9 11 13 13 12 7 4 2 8 4 11 16 10 3 1 4 8 10 16 23 24 11 13 14 15 15 10 7
Wind_Direction
309 307 303 300 299 299 297 291 287 280 268 264 261 255 252 245 242 237 225 218 203 199 203 198 197 196 187 178 165 146 124 79 52 48 240 223 195 178 189 177 141 153 171 170 161
302 300 297 295 292 293 293 289 285 281 275 264 261 258 252 249 241 232 226 220 201 200 201 195 201 197 183 183 175 134 111 110 51 14 23 232 239 182 247 162 164 181 174 181 174
299 296 293 289 287 285 285 286 283 281 273 269 263 257 253 244 239 231 220 212 203 194 190 189 193 196 188 194 192 164 120 73 15 3 352 32 280 220 197 168 188 216 182 185 181
299 299 299 295 292 285 279 278 277 276 273 266 262 263 252 233 227 230 217 208 204 200 195 200 195 191 184 191 203 192 164 329 11 340 313 332 349 263 266 177 184 226 247 186 184
299 292 280 283 288 290 285 275 271 268 270 266 258 259 253 229 209 207 208 208 204 205 201 207 203 198 188 171 197 200 160 319 339 324 290 300 8 92 224 172 180 193 209 197 188
296 296 289 279 269 271 279 280 270 264 261 262 256 248 253 235 206 197 195 207 203 201 208 206 199 189 188 172 197 187 290 301 326 304 261 254 15 26 179 188 196 189 200 202 194
293 289 289 274 270 270 260 267 273 262 256 255 253 247 240 214 198 190 206 198 196 195 202 195 188 184 180 172 202 228 267 295 322 287 219 227 358 29 2 163 172 176 195 207 191
291 289 282 277 266 263 269 257 259 261 252 246 244 237 230 214 209 197 200 196 187 183 176 183 185 188 181 186 193 231 252 303 104 233 193 236 306 43 78 228 170 173 186 202 198
290 289 286 278 268 259 259 262 253 250 247 237 229 218 197 194 214 203 196 178 181 179 175 173 184 190 195 208 222 228 204 203 105 196 232 233 242 188 111 60 170 166 196 191 201
305 291 285 283 273 256 251 250 250 241 238 231 212 191 177 139 187 152 175 176 168 178 177 180 186 197 200 209 210 199 214 215 109 103 287 277 256 238 221 159 158 179 188 187 196
320 306 291 279 269 245 242 237 234 233 224 218 205 178 157 148 115 148 173 164 163 175 185 188 191 198 199 209 217 212 215 234 217 356 297 296 286 244 226 205 202 197 189 189 195
329 317 306 287 243 221 220 212 217 224 217 207 189 170 164 158 141 124 176 186 187 174 192 193 205 202 204 211 218 221 228 237 236 107 337 314 310 224 220 223 213 208 197 187 189
347 335 312 283 216 199 206 215 221 222 228 203 184 171 165 167 160 153 179 192 181 175 185 196 214 205 214 213 216 225 228 225 263 329 332 314 6 200 208 220 215 214 204 194 201
0 5 343 241 206 220 216 220 223 202 150 183 178 180 200 192 180 172 153 173 193 185 184 209 202 200 210 217 213 235 213 230 279 303 343 302 169 221 205 221 225 215 196 207 204
3 18 4 329 263 247 293 236 183 149 78 138 164 175 170 145 150 160 178 184 174 186 196 187 191 209 224 204 211 225 206 245 276 271 296 297 247 201 198 226 236 232 210 212 206
5 14 1 353 345 311 6 162 136 126 88 131 160 174 177 162 155 168 201 211 202 203 205 216 231 217 228 226 234 238 271 269 267 262 219 228 202 214 216 264 278 258 233 231 220
27 30 27 46 67 90 96 109 109 41 110 97 174 190 170 156 144 146 97 149 170 205 213 209 218 223 221 221 207 241 239 240 158 161 187 148 122 196 329 323 304 310 262 230 230
46 58 74 89 72 73 104 110 67 43 62 87 141 139 168 172 173 164 116 137 191 193 174 188 166 187 208 209 202 171 218 193 187 166 166 139 175 64 42 19 283 263 255 246 236
77 86 92 78 76 93 120 86 41 41 29 78 107 112 107 180 151 157 144 98 67 62 178 179 151 105 73 155 199 197 183 193 184 128 92 119 103 55 325 359 340 359 247 235 215
109 115 99 94 102 77 130 84 76 47 31 18 97 82 104 130 154 144 104 78 64 77 101 150 163 140 88 94 87 154 174 171 158 117 149 69 73 7 8 1 17 351 351 227 232
117 113 98 97 90 69 70 95 52 15 6 12 117 112 114 105 129 107 100 115 118 93 96 234 235 122 13 28 28 93 74 122 111 73 141 140 54 31 23 15 355 349 339 275 225
165 65 61 59 25 83 93 76 60 195 334 181 118 144 153 128 104 94 112 139 182 120 299 264 345 39 47 110 133 93 62 54 83 13 46 105 113 54 35 360 341 302 330 312 239
346 18 327 230 301 344 100 43 10 32 196 194 177 195 177 165 115 133 127 129 264 268 208 300 346 58 103 129 140 54 24 41 78 64 31 15 160 16 15 354 337 295 289 302 298
303 329 48 68 128 248 66 21 55 44 135 173 176 160 198 214 164 142 143 125 175 296 268 322 333 251 167 210 290 305 318 339 25 77 335 275 314 340 319 286 310 320 296 283 320
34 54 57 71 87 244 283 346 19 147 171 174 163 185 207 194 197 177 174 154 175 302 313 353 113 112 214 267 276 285 307 331 14 165 239 259 290 332 323 300 294 316 324 321 6
24 45 38 56 42 29 92 78 71 106 170 145 258 235 219 228 229 221 225 233 249 281 306 316 164 264 280 281 287 293 290 289 292 238 234 255 267 287 297 302 279 264 291 314 280
30 41 48 72 72 79 68 59 48 38 45 54 24 324 277 245 238 241 238 238 253 261 268 279 253 296 287 295 295 315 17 333 263 259 260 249 254 268 279 267 265 258 267 282 287
Height
3136 3134 3132 3131 3129 3127 3126 3126 3125 3125 3124 3124 3124 3124 3125 3125 3127 3128 3129 3131 3132 3133 3136 3139 3142 3145 3148 3149 3152 3153 3154 3154 3154 3154 3154 3153 3154 3154 3156 3159 3162 3162 3167 3168 3169
3132 3130 3129 3127 3126 3124 3123 3122 3122 3122 3121 3122 3121 3121 3122 3123 3124 3125 3128 3128 3130 3132 3135 3138 3140 3143 3147 3149 3151 3153 3152 3154 3156 3155 3154 3154 3151 3149 3149 3158 3162 3161 3165 3169 3170
3129 3127 3125 3123 3122 3121 3120 3119 3119 3118 3118 3119 3119 3119 3119 3121 3122 3123 3124 3126 3129 3130 3133 3135 3136 3142 3145 3147 3150 3153 3153 3154 3155 3155 3154 3148 3153 3153 3154 3155 3162 3163 3165 3169 3171
3125 3124 3123 3121 3119 3118 3117 3116 3116 3116 3115 3115 3116 3116 3117 3119 3122 3120 3122 3124 3127 3128 3131 3132 3135 3139 3143 3147 3150 3151 3152 3154 3156 3155 3155 3156 3155 3151 3155 3157 3161 3163 3167 3169 3173
3120 3118 3116 3116 3116 3115 3114 3113 3112 3112 3112 3112 3113 3114 3115 3117 3118 3119 3120 3122 3125 3128 3130 3132 3135 3139 3142 3147 3149 3151 3153 3153 3154 3155 3155 3157 3155 3153 3156 3158 3161 3164 3166 3172 3176
3115 3113 3111 3111 3110 3110 3110 3110 3109 3109 3109 3110 3110 3111 3113 3115 3115 3117 3118 3120 3123 3126 3128 3131 3136 3141 3144 3146 3148 3152 3152 3152 3151 3152 3153 3157 3156 3158 3158 3159 3161 3164 3166 3171 3176
3109 3107 3105 3104 3105 3105 3104 3105 3106 3106 3106 3107 3108 3109 3110 3112 3112 3114 3116 3118 3121 3125 3129 3132 3135 3138 3141 3145 3147 3148 3149 3150 3152 3151 3153 3157 3159 3157 3159 3161 3162 3164 3167 3169 3175
3103 3101 3099 3099 3099 3100 3101 3100 3101 3102 3103 3104 3105 3107 3108 3109 3111 3113 3114 3117 3120 3123 3126 3130 3133 3137 3140 3143 3146 3147 3149 3150 3151 3152 3155 3159 3158 3158 3155 3157 3161 3163 3165 3169 3173
3098 3096 3095 3094 3094 3095 3095 3096 3096 3097 3099 3100 3103 3104 3106 3108 3110 3110 3112 3115 3117 3121 3124 3128 3131 3136 3140 3142 3145 3146 3148 3149 3151 3153 3156 3158 3158 3158 3156 3156 3155 3162 3165 3168 3173
3096 3091 3091 3090 3090 3090 3089 3091 3092 3093 3095 3098 3100 3105 3105 3108 3109 3109 3110 3112 3116 3118 3122 3125 3129 3133 3137 3140 3142 3145 3147 3147 3151 3154 3155 3155 3156 3156 3156 3157 3159 3162 3163 3166 3170
3093 3090 3087 3086 3087 3086 3087 3088 3091 3092 3091 3095 3097 3099 3102 3104 3106 3107 3109 3110 3114 3117 3120 3123 3127 3129 3135 3139 3142 3144 3145 3145 3150 3153 3151 3151 3151 3153 3157 3157 3158 3161 3162 3165 3168
3091 3089 3085 3084 3084 3084 3084 3084 3084 3087 3089 3091 3095 3098 3100 3102 3105 3107 3109 3112 3113 3116 3119 3124 3124 3131 3135 3138 3141 3142 3142 3146 3149 3149 3149 3148 3148 3150 3155 3156 3157 3160 3163 3165 3168
3089 3086 3084 3083 3083 3083 3082 3083 3083 3085 3088 3090 3094 3097 3101 3103 3105 3107 3109 3110 3112 3115 3119 3122 3126 3131 3134 3136 3139 3140 3139 3145 3148 3148 3146 3145 3145 3147 3152 3154 3156 3158 3163 3165 3167
3089 3086 3084 3082 3085 3082 3082 3083 3084 3086 3088 3091 3093 3097 3100 3102 3104 3106 3108 3112 3113 3115 3119 3122 3125 3128 3130 3133 3136 3137 3138 3143 3145 3147 3147 3147 3148 3147 3150 3151 3153 3156 3158 3161 3164
3089 3086 3085 3083 3083 3084 3085 3084 3084 3087 3089 3094 3094 3096 3099 3103 3105 3107 3109 3111 3113 3114 3119 3122 3123 3126 3128 3130 3134 3133 3138 3140 3142 3144 3146 3145 3148 3146 3149 3149 3149 3151 3155 3158 3162
3088 3086 3086 3084 3084 3084 3083 3084 3086 3089 3090 3094 3095 3096 3099 3102 3105 3107 3109 3111 3113 3115 3117 3120 3122 3124 3126 3128 3131 3132 3135 3137 3139 3143 3144 3144 3146 3145 3145 3147 3147 3148 3152 3155 3158
3088 3086 3086 3085 3085 3084 3084 3086 3089 3088 3092 3095 3094 3095 3098 3102 3104 3106 3108 3108 3111 3113 3116 3118 3120 3122 3123 3125 3128 3129 3132 3134 3138 3140 3142 3142 3145 3147 3148 3146 3145 3146 3147 3150 3154
3090 3089 3088 3088 3088 3087 3087 3089 3088 3093 3091 3092 3094 3095 3098 3101 3104 3106 3107 3108 3110 3111 3113 3116 3120 3119 3120 3122 3124 3126 3128 3130 3135 3139 3138 3141 3143 3146 3146 3143 3141 3141 3144 3149 3150
3093 3092 3092 3092 3091 3090 3091 3087 3095 3094 3095 3094 3095 3096 3098 3100 3103 3105 3106 3108 3110 3111 3114 3115 3117 3119 3119 3119 3122 3123 3125 3127 3129 3133 3136 3140 3143 3142 3141 3140 3137 3137 3139 3142 3145
3096 3095 3094 3093 3093 3094 3093 3092 3096 3096 3097 3096 3095 3098 3099 3101 3103 3103 3106 3109 3110 3111 3112 3114 3116 3118 3118 3118 3118 3118 3123 3125 3126 3134 3138 3138 3142 3144 3138 3137 3136 3133 3134 3137 3141
3100 3098 3097 3097 3096 3095 3093 3096 3097 3097 3097 3097 3098 3100 3100 3101 3102 3103 3108 3111 3110 3111 3112 3113 3115 3118 3119 3120 3119 3120 3120 3123 3125 3129 3132 3139 3144 3142 3139 3136 3135 3133 3131 3132 3135
3103 3101 3099 3098 3099 3097 3097 3097 3098 3098 3097 3098 3099 3100 3101 3101 3103 3104 3107 3109 3108 3110 3111 3112 3114 3117 3119 3120 3120 3121 3123 3123 3125 3131 3131 3133 3142 3137 3136 3134 3133 3131 3130 3129 3130
3104 3102 3101 3100 3099 3099 3099 3099 3098 3097 3097 3099 3099 3100 3101 3101 3104 3105 3107 3108 3108 3110 3111 3113 3115 3118 3123 3124 3122 3121 3125 3127 3129 3131 3133 3135 3135 3133 3132 3130 3129 3128 3129 3128 3128
3104 3102 3101 3099 3100 3101 3101 3100 3100 3099 3099 3100 3100 3101 3102 3103 3103 3104 3106 3108 3108 3108 3110 3114 3115 3118 3121 3123 3123 3123 3125 3127 3130 3133 3134 3131 3129 3130 3128 3126 3127 3126 3127 3127 3126
3105 3103 3102 3102 3102 3102 3102 3101 3100 3100 3100 3100 3101 3101 3102 3103 3104 3104 3105 3106 3107 3107 3109 3113 3115 3117 3118 3119 3120 3121 3124 3126 3128 3131 3133 3130 3129 3128 3128 3127 3128 3127 3126 3126 3123
3108 3105 3104 3102 3103 3103 3102 3102 3101 3101 3101 3100 3100 3100 3101 3102 3103 3103 3104 3106 3106 3108 3108 3111 3113 3115 3116 3116 3115 3116 3119 3122 3124 3125 3127 3128 3128 3126 3128 3127 3127 3126 3126 3125 3123
3110 3108 3107 3106 3106 3106 3105 3104 3102 3101 3101 3100 3100 3099 3099 3099 3100 3101 3102 3104 3104 3106 3107 3111 3111 3112 3113 3113 3112 3114 3115 3118 3118 3118 3121 3124 3125 3124 3125 3125 3124 3123 3123 3124 3123